Seattle Boeing, WA
on Friday, January 25, 2013

Friday
Previous Day Next Day
Daily Summary
 ActualAverage (KSEA)Record (KSEA)
Temperature
Mean Temperature °F 43°F  
Max Temperature 53°F 48°F 58°F (1986)
Min Temperature 39°F 37°F 7°F (1950)
Degree Days
Heating Degree Days 18 22  
Month to date heating degree days 578  
Since 1 July heating degree days 2516  
Cooling Degree Days 0 0  
Month to date cooling degree days 0  
Year to date cooling degree days 0  
Moisture
Dew Point 41°F   
Average Humidity 81    
Maximum Humidity 93    
Minimum Humidity 62    
Precipitation
Precipitation 0.09 in 0.17 in 0.93 in (1993)
Month to date precipitation 4.62  
Year to date precipitation 4.62  
Snow
Snow 0.00 in in 7.90 in (1972)
Month to date snowfall  
Since 1 July snowfall  
Snow Depth in   
Wind
Wind Speed 5 mph   
Max Wind Speed 8 mph   
Max Gust Speed mph   
Visibility 8 miles   
Events Rain   

Key: T is trace of precipitation, MM is missing value
Source: NWS Daily Summary
Time(PST)TemperatureDew PointHumidity Pressure Visibility Wind DirectionWind SpeedGust SpeedPrecipitationEvents Conditions
12:42 AM 42.8°F 39.2°F 87% 30.06 in 2.0 miles ESE 4.6 mph - 0.05 in Rain Light Rain
12:53 AM 43.0°F 39.9°F 89% 30.06 in 3.0 miles SE 5.8 mph - 0.05 in Rain Light Rain
1:07 AM 42.8°F 41.0°F 93% 30.06 in 3.0 miles SSE 5.8 mph - 0.01 in Rain Light Rain
1:18 AM 42.8°F 39.2°F 87% 30.05 in 2.5 miles SE 4.6 mph - 0.01 in Rain Light Rain
1:53 AM 43.0°F 41.0°F 93% 30.05 in 2.5 miles SSE 4.6 mph - 0.02 in Rain Light Rain
2:03 AM 42.8°F 41.0°F 93% 30.05 in 2.0 miles SSE 4.6 mph - 0.01 in Rain Light Rain
2:43 AM 42.8°F 41.0°F 93% 30.06 in 3.0 miles SSE 5.8 mph - 0.02 in   Overcast
2:53 AM 43.0°F 41.0°F 93% 30.06 in 2.5 miles SE 6.9 mph - 0.02 in Rain Light Rain
3:01 AM 44.6°F 41.0°F 87% 30.05 in 3.0 miles SE 5.8 mph - 0.00 in   Overcast
3:17 AM 44.6°F 42.8°F 93% 30.05 in 5.0 miles SE 5.8 mph - 0.00 in   Overcast
3:53 AM 44.1°F 42.1°F 93% 30.05 in 8.0 miles SE 6.9 mph - 0.00 in   Overcast
4:53 AM 45.0°F 42.1°F 90% 30.04 in 9.0 miles SE 8.1 mph - N/A   Overcast
5:53 AM 45.0°F 42.1°F 90% 30.05 in 10.0 miles SE 8.1 mph - N/A   Overcast
6:53 AM 46.0°F 42.1°F 86% 30.05 in 10.0 miles SE 8.1 mph - N/A   Overcast
7:53 AM 48.0°F 42.1°F 80% 30.04 in 10.0 miles Variable 6.9 mph - N/A   Mostly Cloudy
8:53 AM 46.9°F 43.0°F 86% 30.05 in 10.0 miles Calm Calm - N/A   Mostly Cloudy
9:53 AM 48.9°F 43.0°F 80% 30.06 in 10.0 miles SE 3.5 mph - N/A   Overcast
10:53 AM 50.0°F 43.0°F 77% 30.06 in 10.0 miles Calm Calm - N/A   Overcast
11:53 AM 50.0°F 43.0°F 77% 30.03 in 10.0 miles Calm Calm - N/A   Overcast
12:51 PM 53.6°F 42.8°F 67% 30.01 in 10.0 miles South 6.9 mph - N/A   Mostly Cloudy
12:53 PM 52.0°F 42.1°F 69% 30.01 in 10.0 miles South 3.5 mph - N/A   Mostly Cloudy
1:53 PM 53.1°F 41.0°F 64% 29.99 in 10.0 miles SSW 3.5 mph - N/A   Overcast
2:00 PM 53.6°F 42.8°F 67% 29.98 in 10.0 miles Variable 5.8 mph - N/A   Mostly Cloudy
2:34 PM 53.6°F 41.0°F 62% 29.97 in 10.0 miles WSW 4.6 mph - N/A   Scattered Clouds
2:53 PM 53.1°F 41.0°F 64% 29.97 in 10.0 miles SW 6.9 mph - N/A   Scattered Clouds
3:53 PM 52.0°F 39.9°F 63% 29.96 in 10.0 miles South 4.6 mph - N/A   Scattered Clouds
4:53 PM 50.0°F 39.0°F 66% 29.96 in 10.0 miles SSW 3.5 mph - N/A   Clear
5:53 PM 43.0°F 37.9°F 82% 29.96 in 10.0 miles SSE 3.5 mph - N/A   Clear
6:53 PM 48.0°F 39.9°F 74% 29.95 in 10.0 miles SSE 8.1 mph - N/A   Partly Cloudy
7:53 PM 44.1°F 39.0°F 82% 29.95 in 10.0 miles SE 4.6 mph - N/A   Scattered Clouds
8:53 PM 46.0°F 37.9°F 73% 29.94 in 10.0 miles SSW 4.6 mph - N/A   Scattered Clouds
9:53 PM 43.0°F 37.0°F 80% 29.94 in 10.0 miles SE 5.8 mph - N/A   Partly Cloudy
10:53 PM 44.1°F 37.0°F 76% 29.94 in 10.0 miles ESE 4.6 mph - N/A   Scattered Clouds
11:53 PM 39.0°F 36.0°F 89% 29.94 in 10.0 miles ESE 4.6 mph - N/A   Scattered Clouds
Moon Phase
Jan. 25 Jan. 26 Feb. 03 Feb. 10 Feb. 17
Sunrise:07:43 AM (PST) Moon Rise:04:03 PM (PST)1/25
Sunset:05:00 PM (PST) Moon Set:06:27 AM (PST)1/25

Copyright © 2014 The Weather Underground, Inc.